CZ-6A DEB, 55902

Orbit data source: Space-Track

CZ-6A DEB, 55902 is space debris in SSO originally from a launch on Fri, 11 Nov 2022 UTC launched from the Taiyaun Space Center, China (TSC). Debris objects in space refer to the collection of defunct objects orbiting the Earth. Examples of debris include non-operational satellites, rocket bodies, and fragments generated from explosions, collisions, or faulty payload assembly.

Loading next visibility...
Identifier
55902, 2022-151ABA
Orbit
SSO
Country
Flag of CNCN / PRC
Related business
Manufacturer
SAST
Mission
Spacecraft
Bus & Motor
Unknown
Mass
Unknown
Launch date (UTC)
2022-11-11 (3 years ago)
Launch vehicle
Unknown
Launch site
Taiyaun Space Center, China (TSC)
Object type
Payload
Rocket body
Debris
Shape & HBR
Unknown shape, 0.1 m
Radar Cross Section
Small (<0.1 m²)

Expand to show TLE details & history
Last TLE update: 19 hours ago

TLE from 19 hours ago
0 CZ-6A DEB
1 55902U 22151ABA 25351.59723606  .00014009  00000-0  20759-2 0  9995
2 55902  98.5844  35.8441 0049251 114.7806 245.8537 14.74400816162619
Epoch: 2025-12-17T14:20Z
TLE epoch observation values (Epoch: 2025-12-17T14:20:01.195Z)
Latitude
0.00004°
Longitude
94.3743°
Altitude
664.345 km
Speed
7.517 km/s
True Right ascension
02h 23m 22s
True Declination
0° 00' 00"
Sunlit
Object was in full shadow at epoch
Visualization orbit readout
Latitude
Unknown
Longitude
Unknown
Altitude
Unknown
Speed
Unknown
Apparent Right ascension
Unknown
Apparent Declination
Unknown
Sunlit
N/A
Visualization observer readout
Local Sidereal Time
08:15:08
Azimuth
Unknown
Elevation
Unknown
Doppler factor
Unknown
Orbital elements
Apogee altitude
678.719 km
Perigee altitude
609.549 km
Semi-major axis
7,022.271 km
Eccentricity
0.00493
Inclination
98.5844°
RAAN
35.8441°
Arg. of periapsis
114.7806°
True anomaly
245.34001°
Mean anomaly
245.8537°
Eccentric anomaly
245.59672°
Mean motion
3.6883 °/min
Orbital period
97.61 mins
BSTAR
0.0020759
Loading maneuver chart data...
Computing Atmospheric mass density...
Loading historical data...
Loading historical data...
Loading historical data...
Loading historical data...
Loading historical data...
Loading historical data...
Loading historical data...

Documentation

Showing up to 5 results
|